Time,TemperatureF,DewpointF,PressureIn,WindDirection,WindDirectionDegrees,WindSpeedMPH,WindSpeedGustMPH,Humidity,HourlyPrecipIn,Conditions,Clouds,dailyrainin,SoftwareType,DateUTC
2013-04-09 00:03:00,35.0,-99.9,-100.00,North,0,0.0,0.0,-999,0.00,,,0.19,,2013-04-09 05:03:00,
2013-04-09 00:13:00,35.0,-99.9,-100.00,North,0,0.0,1.0,-999,0.00,,,0.19,,2013-04-09 05:13:00,
2013-04-09 00:22:00,35.0,-99.9,-100.00,North,0,0.0,1.0,-999,0.00,,,0.19,,2013-04-09 05:22:00,
2013-04-09 00:33:00,34.0,-99.9,-100.00,North,0,0.0,0.0,-999,0.00,,,0.19,,2013-04-09 05:33:00,
2013-04-09 00:43:00,34.0,-99.9,-100.00,North,0,0.0,0.0,-999,0.00,,,0.19,,2013-04-09 05:43:00,
2013-04-09 00:52:00,34.0,-99.9,-100.00,North,0,0.0,0.0,-999,0.00,,,0.19,,2013-04-09 05:52:00,
2013-04-09 01:02:00,34.0,-99.9,-100.00,North,0,0.0,1.0,-999,0.00,,,0.19,,2013-04-09 06:02:00,
2013-04-09 01:12:00,34.0,-99.9,-100.00,North,0,0.0,0.0,-999,0.00,,,0.19,,2013-04-09 06:12:00,
2013-04-09 01:22:00,34.0,-99.9,-100.00,North,0,0.0,0.0,-999,0.00,,,0.19,,2013-04-09 06:22:00,
2013-04-09 01:32:00,34.0,-99.9,-100.00,North,0,0.0,0.0,-999,0.00,,,0.19,,2013-04-09 06:32:00,
2013-04-09 01:42:00,34.0,-99.9,-100.00,North,0,0.0,0.0,-999,0.00,,,0.19,,2013-04-09 06:42:00,
2013-04-09 01:52:00,34.0,-99.9,-100.00,North,0,0.0,1.0,-999,0.00,,,0.19,,2013-04-09 06:52:00,
2013-04-09 02:02:00,34.0,-99.9,-100.00,North,0,0.0,0.0,-999,0.00,,,0.19,,2013-04-09 07:02:00,
2013-04-09 02:13:00,34.0,-99.9,-100.00,North,0,0.0,0.0,-999,0.00,,,0.19,,2013-04-09 07:13:00,
2013-04-09 02:22:00,34.0,-99.9,-100.00,North,0,0.0,0.0,-999,0.00,,,0.19,,2013-04-09 07:22:00,
2013-04-09 02:32:00,34.0,-99.9,-100.00,SE,135,1.0,3.0,-999,0.00,,,0.19,,2013-04-09 07:32:00,
2013-04-09 02:42:00,34.0,-99.9,-100.00,SE,135,1.0,3.0,-999,0.00,,,0.19,,2013-04-09 07:42:00,
2013-04-09 02:53:00,34.0,-99.9,-100.00,SE,135,0.0,2.0,-999,0.00,,,0.19,,2013-04-09 07:53:00,
2013-04-09 03:03:00,34.0,-99.9,-100.00,SE,135,0.0,2.0,-999,0.00,,,0.19,,2013-04-09 08:03:00,
2013-04-09 03:13:00,34.0,-99.9,-100.00,SE,135,0.0,2.0,-999,0.00,,,0.19,,2013-04-09 08:13:00,
2013-04-09 03:22:00,34.0,-99.9,-100.00,SE,135,0.0,1.0,-999,0.00,,,0.19,,2013-04-09 08:22:00,
2013-04-09 03:32:00,34.0,-99.9,-100.00,SE,135,0.0,1.0,-999,0.00,,,0.19,,2013-04-09 08:32:00,
2013-04-09 03:42:00,34.0,-99.9,-100.00,SE,135,0.0,1.0,-999,0.00,,,0.19,,2013-04-09 08:42:00,
2013-04-09 03:52:00,35.0,-99.9,-100.00,SE,135,0.0,1.0,-999,0.00,,,0.19,,2013-04-09 08:52:00,
2013-04-09 04:03:00,34.0,-99.9,-100.00,SE,135,0.0,2.0,-999,0.00,,,0.19,,2013-04-09 09:03:00,
2013-04-09 04:13:00,34.0,-99.9,-100.00,SE,135,1.0,1.0,-999,0.00,,,0.19,,2013-04-09 09:13:00,
2013-04-09 04:23:00,34.0,-99.9,-100.00,SE,135,1.0,1.0,-999,0.00,,,0.19,,2013-04-09 09:23:00,
2013-04-09 04:33:00,34.0,-99.9,-100.00,North,0,0.0,3.0,-999,0.00,,,0.19,,2013-04-09 09:33:00,
2013-04-09 04:44:00,34.0,-99.9,-100.00,North,0,0.0,3.0,-999,0.00,,,0.19,,2013-04-09 09:44:00,
2013-04-09 04:53:00,35.0,-99.9,-100.00,North,0,0.0,1.0,-999,0.00,,,0.19,,2013-04-09 09:53:00,
2013-04-09 05:04:00,35.0,-99.9,-100.00,North,0,0.0,3.0,-999,0.00,,,0.18,,2013-04-09 10:04:00,
2013-04-09 05:13:00,35.0,-99.9,-100.00,North,0,0.0,3.0,-999,0.00,,,0.18,,2013-04-09 10:13:00,
2013-04-09 05:24:00,34.0,-99.9,-100.00,North,0,0.0,3.0,-999,0.00,,,0.17,,2013-04-09 10:24:00,
2013-04-09 05:33:00,34.0,-99.9,-100.00,NE,45,0.0,3.0,-999,0.00,,,0.17,,2013-04-09 10:33:00,
2013-04-09 05:43:00,34.0,-99.9,-100.00,NE,45,0.0,3.0,-999,0.00,,,0.17,,2013-04-09 10:43:00,
2013-04-09 05:54:00,34.0,-99.9,-100.00,NE,45,0.0,2.0,-999,0.00,,,0.17,,2013-04-09 10:54:00,
2013-04-09 06:03:00,34.0,-99.9,-100.00,NE,45,0.0,1.0,-999,0.00,,,0.17,,2013-04-09 11:03:00,
2013-04-09 06:12:00,34.0,-99.9,-100.00,NE,45,0.0,1.0,-999,0.00,,,0.17,,2013-04-09 11:12:00,
2013-04-09 06:22:00,34.0,-99.9,-100.00,NE,45,0.0,1.0,-999,0.00,,,0.17,,2013-04-09 11:22:00,
2013-04-09 06:33:00,34.0,-99.9,-100.00,NE,45,0.0,1.0,-999,0.00,,,0.15,,2013-04-09 11:33:00,
2013-04-09 06:43:00,34.0,-99.9,-100.00,NE,45,0.0,1.0,-999,0.00,,,0.15,,2013-04-09 11:43:00,
2013-04-09 06:52:00,34.0,-99.9,-100.00,NE,45,0.0,1.0,-999,0.00,,,0.14,,2013-04-09 11:52:00,
2013-04-09 07:02:00,34.0,-99.9,-100.00,NE,45,1.0,3.0,-999,0.00,,,0.13,,2013-04-09 12:02:00,
2013-04-09 07:12:00,34.0,-99.9,-100.00,NE,45,1.0,3.0,-999,0.00,,,0.13,,2013-04-09 12:12:00,
2013-04-09 07:22:00,34.0,-99.9,-100.00,NNE,23,2.0,7.0,-999,0.00,,,0.12,,2013-04-09 12:22:00,
2013-04-09 07:33:00,34.0,-99.9,-100.00,North,0,1.0,5.0,-999,0.00,,,0.11,,2013-04-09 12:33:00,
2013-04-09 07:43:00,34.0,-99.9,-100.00,North,0,1.0,5.0,-999,0.00,,,0.11,,2013-04-09 12:43:00,
2013-04-09 07:53:00,34.0,-99.9,-100.00,NNE,23,0.0,3.0,-999,0.00,,,0.11,,2013-04-09 12:53:00,
2013-04-09 08:03:00,35.0,-99.9,-100.00,NNE,23,1.0,3.0,-999,0.00,,,0.11,,2013-04-09 13:03:00,
2013-04-09 08:13:00,35.0,-99.9,-100.00,NNE,23,1.0,3.0,-999,0.00,,,0.11,,2013-04-09 13:13:00,
2013-04-09 08:23:00,35.0,-99.9,-100.00,NNE,23,3.0,5.0,-999,0.00,,,0.11,,2013-04-09 13:23:00,
2013-04-09 08:33:00,35.0,-99.9,-100.00,North,0,3.0,8.0,-999,0.00,,,0.11,,2013-04-09 13:33:00,
2013-04-09 08:43:00,35.0,-99.9,-100.00,North,0,3.0,8.0,-999,0.00,,,0.11,,2013-04-09 13:43:00,
2013-04-09 08:54:00,35.0,-99.9,-100.00,North,0,6.0,8.0,-999,0.00,,,0.10,,2013-04-09 13:54:00,
2013-04-09 09:04:00,35.0,-99.9,-100.00,NNE,23,3.0,7.0,-999,0.00,,,0.10,,2013-04-09 14:04:00,
2013-04-09 09:12:00,35.0,-99.9,-100.00,NNE,23,3.0,7.0,-999,0.00,,,0.10,,2013-04-09 14:12:00,
2013-04-09 09:22:00,36.0,-99.9,-100.00,NNE,23,3.0,6.0,-999,0.00,,,0.10,,2013-04-09 14:22:00,
2013-04-09 09:33:00,36.0,-99.9,-100.00,North,0,2.0,8.0,-999,0.00,,,0.10,,2013-04-09 14:33:00,
2013-04-09 09:43:00,36.0,-99.9,-100.00,North,0,2.0,8.0,-999,0.00,,,0.10,,2013-04-09 14:43:00,
2013-04-09 09:53:00,36.0,-99.9,-100.00,North,0,3.0,8.0,-999,0.00,,,0.10,,2013-04-09 14:53:00,
2013-04-09 10:03:00,36.0,-99.9,-100.00,North,0,2.0,8.0,-999,0.00,,,0.10,,2013-04-09 15:03:00,
2013-04-09 10:13:00,36.0,-99.9,-100.00,North,0,2.0,8.0,-999,0.00,,,0.10,,2013-04-09 15:13:00,
2013-04-09 10:23:00,37.0,-99.9,-100.00,North,0,3.0,9.0,-999,0.00,,,0.10,,2013-04-09 15:23:00,
2013-04-09 10:35:00,37.0,-99.9,-100.00,NNE,23,6.0,8.0,-999,0.00,,,0.10,,2013-04-09 15:35:00,
2013-04-09 10:44:00,37.0,-99.9,-100.00,NNE,23,6.0,8.0,-999,0.00,,,0.10,,2013-04-09 15:44:00,
2013-04-09 10:54:00,36.0,-99.9,-100.00,NNE,23,5.0,12.0,-999,0.00,,,0.09,,2013-04-09 15:54:00,
2013-04-09 11:05:00,36.0,-99.9,-100.00,North,0,5.0,10.0,-999,0.00,,,0.09,,2013-04-09 16:05:00,
2013-04-09 11:14:00,36.0,-99.9,-100.00,North,0,5.0,10.0,-999,0.00,,,0.09,,2013-04-09 16:14:00,
2013-04-09 11:24:00,35.0,-99.9,-100.00,North,0,7.0,12.0,-999,0.00,,,0.09,,2013-04-09 16:24:00,
2013-04-09 11:34:00,36.0,-99.9,-100.00,North,0,3.0,12.0,-999,0.00,,,0.09,,2013-04-09 16:34:00,
2013-04-09 11:43:00,36.0,-99.9,-100.00,North,0,3.0,12.0,-999,0.00,,,0.09,,2013-04-09 16:43:00,
2013-04-09 11:54:00,36.0,-99.9,-100.00,North,0,5.0,9.0,-999,0.00,,,0.09,,2013-04-09 16:54:00,
2013-04-09 12:03:00,36.0,-99.9,-100.00,NNE,23,7.0,12.0,-999,0.00,,,0.09,,2013-04-09 17:03:00,
2013-04-09 12:13:00,36.0,-99.9,-100.00,NNE,23,7.0,12.0,-999,0.00,,,0.09,,2013-04-09 17:13:00,
2013-04-09 12:24:00,36.0,-99.9,-100.00,North,0,5.0,12.0,-999,0.00,,,0.08,,2013-04-09 17:24:00,
2013-04-09 12:33:00,36.0,-99.9,-100.00,North,0,5.0,13.0,-999,0.00,,,0.08,,2013-04-09 17:33:00,
2013-04-09 12:43:00,36.0,-99.9,-100.00,North,0,5.0,13.0,-999,0.00,,,0.08,,2013-04-09 17:43:00,
2013-04-09 12:55:00,36.0,-99.9,-100.00,NNE,23,2.0,12.0,-999,0.00,,,0.06,,2013-04-09 17:55:00,
2013-04-09 13:03:00,36.0,-99.9,-100.00,NNE,23,5.0,15.0,-999,0.00,,,0.04,,2013-04-09 18:03:00,
2013-04-09 13:13:00,36.0,-99.9,-100.00,NNE,23,5.0,15.0,-999,0.00,,,0.04,,2013-04-09 18:13:00,
2013-04-09 13:23:00,35.0,-99.9,-100.00,North,0,8.0,16.0,-999,0.00,,,0.03,,2013-04-09 18:23:00,
2013-04-09 13:33:00,35.0,-99.9,-100.00,NNE,23,3.0,13.0,-999,0.00,,,0.02,,2013-04-09 18:33:00,
2013-04-09 13:44:00,35.0,-99.9,-100.00,NNE,23,3.0,13.0,-999,0.00,,,0.02,,2013-04-09 18:44:00,
2013-04-09 13:53:00,36.0,-99.9,-100.00,NNE,23,3.0,10.0,-999,0.00,,,0.01,,2013-04-09 18:53:00,
2013-04-09 14:03:00,36.0,-99.9,-100.00,NNE,23,3.0,10.0,-999,0.00,,,0.01,,2013-04-09 19:03:00,
2013-04-09 14:12:00,36.0,-99.9,-100.00,NNE,23,3.0,10.0,-999,0.00,,,0.01,,2013-04-09 19:12:00,
2013-04-09 14:23:00,36.0,-99.9,-100.00,NNE,23,3.0,10.0,-999,0.00,,,0.01,,2013-04-09 19:23:00,
2013-04-09 14:33:00,35.0,-99.9,-100.00,NNE,23,3.0,10.0,-999,0.00,,,0.00,,2013-04-09 19:33:00,
2013-04-09 14:43:00,35.0,-99.9,-100.00,NNE,23,3.0,10.0,-999,0.00,,,0.00,,2013-04-09 19:43:00,
2013-04-09 14:53:00,34.0,-99.9,-100.00,NNE,23,3.0,14.0,-999,0.00,,,0.00,,2013-04-09 19:53:00,
2013-04-09 15:03:00,35.0,-99.9,-100.00,NE,45,5.0,9.0,-999,0.00,,,0.00,,2013-04-09 20:03:00,
2013-04-09 15:13:00,35.0,-99.9,-100.00,NNE,23,5.0,10.0,-999,0.00,,,0.00,,2013-04-09 20:13:00,
2013-04-09 15:23:00,35.0,-99.9,-100.00,NNE,23,5.0,10.0,-999,0.00,,,0.00,,2013-04-09 20:23:00,
2013-04-09 15:35:00,35.0,-99.9,-100.00,NNE,23,6.0,8.0,-999,0.00,,,0.00,,2013-04-09 20:35:00,
2013-04-09 15:44:00,35.0,-99.9,-100.00,NNE,23,6.0,8.0,-999,0.00,,,0.00,,2013-04-09 20:44:00,
2013-04-09 15:53:00,36.0,-99.9,-100.00,NNE,23,3.0,8.0,-999,0.00,,,0.00,,2013-04-09 20:53:00,
2013-04-09 16:03:00,36.0,-99.9,-100.00,NNE,23,5.0,10.0,-999,0.00,,,0.00,,2013-04-09 21:03:00,
2013-04-09 16:14:00,36.0,-99.9,-100.00,NNE,23,5.0,10.0,-999,0.00,,,0.00,,2013-04-09 21:14:00,
2013-04-09 16:23:00,36.0,-99.9,-100.00,NNE,23,5.0,10.0,-999,0.00,,,0.00,,2013-04-09 21:23:00,
2013-04-09 16:33:00,37.0,-99.9,-100.00,NNE,23,6.0,16.0,-999,0.00,,,0.00,,2013-04-09 21:33:00,
2013-04-09 16:43:00,37.0,-99.9,-100.00,NNE,23,6.0,16.0,-999,0.00,,,0.00,,2013-04-09 21:43:00,
2013-04-09 16:53:00,36.0,-99.9,-100.00,North,0,5.0,14.0,-999,0.00,,,0.00,,2013-04-09 21:53:00,
2013-04-09 17:04:00,37.0,-99.9,-100.00,NNE,23,3.0,12.0,-999,0.00,,,0.00,,2013-04-09 22:04:00,
2013-04-09 17:13:00,37.0,-99.9,-100.00,NE,45,7.0,13.0,-999,0.00,,,0.00,,2013-04-09 22:13:00,
2013-04-09 17:23:00,37.0,-99.9,-100.00,NE,45,7.0,13.0,-999,0.00,,,0.00,,2013-04-09 22:23:00,
2013-04-09 17:34:00,36.0,-99.9,-100.00,NNE,23,6.0,12.0,-999,0.00,,,0.00,,2013-04-09 22:34:00,
2013-04-09 17:43:00,36.0,-99.9,-100.00,NNE,23,6.0,12.0,-999,0.00,,,0.00,,2013-04-09 22:43:00,
2013-04-09 17:54:00,35.0,-99.9,-100.00,NNE,23,6.0,17.0,-999,0.00,,,0.00,,2013-04-09 22:54:00,
2013-04-09 18:03:00,36.0,-99.9,-100.00,NE,45,5.0,14.0,-999,0.00,,,0.00,,2013-04-09 23:03:00,
2013-04-09 18:13:00,35.0,-99.9,-100.00,NE,45,6.0,13.0,-999,0.00,,,0.00,,2013-04-09 23:13:00,
2013-04-09 18:23:00,35.0,-99.9,-100.00,NE,45,6.0,13.0,-999,0.00,,,0.00,,2013-04-09 23:23:00,
2013-04-09 18:33:00,35.0,-99.9,-100.00,NNE,23,3.0,10.0,-999,0.00,,,0.00,,2013-04-09 23:33:00,
2013-04-09 18:43:00,35.0,-99.9,-100.00,NNE,23,3.0,10.0,-999,0.00,,,0.00,,2013-04-09 23:43:00,
2013-04-09 18:53:00,35.0,-99.9,-100.00,NE,45,6.0,17.0,-999,0.00,,,0.00,,2013-04-09 23:53:00,
2013-04-09 19:03:00,35.0,-99.9,-100.00,NE,45,6.0,17.0,-999,0.00,,,0.00,,2013-04-10 00:03:00,
2013-04-09 19:13:00,35.0,-99.9,-100.00,NE,45,6.0,17.0,-999,0.00,,,0.00,,2013-04-10 00:13:00,
2013-04-09 19:23:00,34.0,-99.9,-100.00,NNE,23,7.0,12.0,-999,0.00,,,0.00,,2013-04-10 00:23:00,
2013-04-09 19:33:00,33.0,-99.9,-100.00,NE,45,2.0,15.0,-999,0.00,,,0.00,,2013-04-10 00:33:00,
2013-04-09 19:43:00,33.0,-99.9,-100.00,NE,45,2.0,15.0,-999,0.00,,,0.00,,2013-04-10 00:43:00,
2013-04-09 19:53:00,32.0,-99.9,-100.00,NNE,23,7.0,14.0,-999,0.00,,,0.00,,2013-04-10 00:53:00,
2013-04-09 20:03:00,32.0,-99.9,-100.00,NNE,23,6.0,13.0,-999,0.00,,,0.00,,2013-04-10 01:03:00,
2013-04-09 20:13:00,31.0,-99.9,-100.00,NNE,23,3.0,12.0,-999,0.00,,,0.00,,2013-04-10 01:13:00,
2013-04-09 20:23:00,31.0,-99.9,-100.00,NNE,23,3.0,12.0,-999,0.00,,,0.00,,2013-04-10 01:23:00,
2013-04-09 20:33:00,31.0,-99.9,-100.00,NNE,23,3.0,13.0,-999,0.00,,,0.00,,2013-04-10 01:33:00,
2013-04-09 20:43:00,31.0,-99.9,-100.00,NNE,23,3.0,13.0,-999,0.00,,,0.00,,2013-04-10 01:43:00,
2013-04-09 20:53:00,31.0,-99.9,-100.00,North,0,1.0,7.0,-999,0.00,,,0.00,,2013-04-10 01:53:00,
2013-04-09 21:03:00,31.0,-99.9,-100.00,NNE,23,1.0,7.0,-999,0.00,,,0.00,,2013-04-10 02:03:00,
2013-04-09 21:13:00,31.0,-99.9,-100.00,NNE,23,1.0,7.0,-999,0.00,,,0.00,,2013-04-10 02:13:00,
2013-04-09 21:23:00,30.0,-99.9,-100.00,NNE,23,3.0,7.0,-999,0.00,,,0.00,,2013-04-10 02:23:00,
2013-04-09 21:33:00,30.0,-99.9,-100.00,NNE,23,3.0,7.0,-999,0.00,,,0.00,,2013-04-10 02:33:00,
2013-04-09 21:43:00,30.0,-99.9,-100.00,NNE,23,3.0,7.0,-999,0.00,,,0.00,,2013-04-10 02:43:00,
2013-04-09 21:53:00,29.0,-99.9,-100.00,NE,45,2.0,8.0,-999,0.00,,,0.00,,2013-04-10 02:53:00,
2013-04-09 22:03:00,29.0,-99.9,-100.00,NNE,23,2.0,10.0,-999,0.00,,,0.00,,2013-04-10 03:03:00,
2013-04-09 22:13:00,29.0,-99.9,-100.00,NNE,23,2.0,10.0,-999,0.00,,,0.00,,2013-04-10 03:13:00,
2013-04-09 22:22:00,29.0,-99.9,-100.00,NE,45,3.0,10.0,-999,0.00,,,0.00,,2013-04-10 03:22:00,
2013-04-09 22:33:00,29.0,-99.9,-100.00,NNE,23,9.0,15.0,-999,0.00,,,0.00,,2013-04-10 03:33:00,
2013-04-09 22:43:00,29.0,-99.9,-100.00,NNE,23,9.0,15.0,-999,0.00,,,0.00,,2013-04-10 03:43:00,
2013-04-09 22:53:00,28.0,-99.9,-100.00,NNE,23,5.0,14.0,-999,0.00,,,0.00,,2013-04-10 03:53:00,
2013-04-09 23:03:00,28.0,-99.9,-100.00,ENE,68,2.0,12.0,-999,0.00,,,0.00,,2013-04-10 04:03:00,
2013-04-09 23:13:00,28.0,-99.9,-100.00,ENE,68,2.0,12.0,-999,0.00,,,0.00,,2013-04-10 04:13:00,
2013-04-09 23:23:00,28.0,-99.9,-100.00,NE,45,3.0,13.0,-999,0.00,,,0.00,,2013-04-10 04:23:00,
2013-04-09 23:33:00,28.0,-99.9,-100.00,NE,45,3.0,15.0,-999,0.00,,,0.00,,2013-04-10 04:33:00,
2013-04-09 23:43:00,28.0,-99.9,-100.00,NE,45,3.0,15.0,-999,0.00,,,0.00,,2013-04-10 04:43:00,
2013-04-09 23:53:00,28.0,-99.9,-100.00,NE,45,3.0,20.0,-999,0.00,,,0.00,,2013-04-10 04:53:00,